Location: Del Amo
(33.8464°N, 118.2104°W)
Time: 18:50:23
(UTC+00:00)

S-56A Canister/Altair - Pass Details

Date: 20 September 2024
Orbit: 636 x 2487 km, 38.9° (Epoch: 14 October)

Event Time Altitude Azimuth Distance (km) Brightness Sun altitude
Rises 05:08:35 0° 290° (WNW) 3,589 11.8 -39.3°
Reaches altitude 10° 05:10:47 10° 291° (WNW) 2,820 11.1 -39.6°
Enters shadow 05:15:15 49° 292° (WNW) 1,548 9.1 -40.4°
Maximum altitude 05:17:44 89° 16° (NNE) 1,359 - -40.8°
Drops below altitude 10° 05:28:34 10° 113° (ESE) 4,251 - -42.6°
Sets 05:32:37 0° 114° (ESE) 5,511 - -43.2°
